SCP
0 0 0 0 0 0 0 0 0 0 0 0 0 0 0 0 0 0 0 0 0 0 0 0 0 0 0 0 0 0 0 0 0 0 0 0 0 0 0 0 0 0 0
0 0 0 0 0 0 0 0 0 0 0 0 0 0 0 0 0 0 0 0 0 0 0 0 0 0 0 0 0 0 0 0 0 0 -0 0 0 0 0 0 0 0 0
0 0 0 0 0 0 0 0 0 0 0 0 0 0 0 0 0 0 0 0 0 0 0 0 0 0 0 0 0 0 0 0 0 0 -0 -0 0 0 0 0 0 0 0
0 0 0 0 0 0 0 0 0 0 0 0 0 0 0 0 0 0 0 0 0 0 0 0 0 0 0 0 0 0 0 0 0 0 0 -0 -0 0 0 0 0 0 0
0 0 0 0 0 0 0 0 0 0 0 0 0 0 0 0 0 0 0 0 0 0 0 0 0 0 0 0 0 0 0 0 0 0 -0 -0 0 -0 0 0 0 0 0
0 0 0 0 0 0 0 0 0 0 0 0 0 0 0 0 0 0 0 0 0 0 0 0 0 0 0 0 0 0 0 0 0 0 -0 -0 0 0 0 0 0 0 0
0 0 0 0 0 0 0 0 0 0 0 0 0 0 0 0 0 0 0 0 0 0 0 0 0 0 0 0 0 0 0 0 0 0 0 -0 0 0 0 0 0 0 0
0 0 0 0 0 0 0 0 0 0 0 0 0 0 0 0 0 0 0 0 0 0 0 0 0 0 0 0 0 0 0 0 0 0 0 -0 0 0 0 0 0 0 0
0 0 0 0 0 0 0 0 0 0 0 0 0 0 0 0 0 0 0 0 0 0 0 0 0 0 0 0 0 0 0 0 0 0 0 -0 -0 0 0 0 0 0 0
0 0 0 0 0 0 0 0 0 0 0 0 0 0 0 0 0 0 0 0 0 0 0 0 0 0 0 0 0 0 0 0 0 0 0 -0 -0 0 0 0 0 0 0
0 0 0 0 0 0 0 0 0 0 0 0 0 0 0 0 0 0 0 0 0 0 0 0 0 0 0 0 0 0 0 0 0 0 0 -0 -0 -0 0 0 0 0 0
0 0 0 0 0 0 0 0 0 0 0 0 0 0 0 0 0 0 0 0 0 0 0 0 0 0 0 0 0 0 0 0 0 0 0 0 -0 -0 0 0 0 0 0
0 0 0 0 0 0 0 0 0 0 0 0 0 0 0 0 0 0 0 0 0 0 0 0 0 0 0 0 0 0 0 0 0 0 0 0 -0 -0 -0 0 0 0 0
0 0 0 0 0 0 0 0 0 0 0 0 0 0 0 0 0 0 0 0 0 0 0 0 0 0 0 0 0 0 0 0 0 0 0 0 -0 -0 -0 0 0 0 0
0 0 0 0 0 0 0 0 0 0 0 0 0 0 0 0 0 0 0 0 0 0 0 0 0 0 0 0 0 0 0 0 0 0 0 0 -0 -0 -0 -0 0 0 0
0 0 0 0 0 0 0 0 0 0 0 0 0 0 0 0 0 0 0 0 0 0 0 0 0 0 0 0 0 0 0 0 0 0 0 0 -0 -0 -0 -0 -0 0 0
0 0 0 0 0 0 0 0 0 0 0 0 0 0 0 0 0 0 0 0 0 0 0 0 0 0 0 0 0 0 0 0 0 0 0 0 -0 -0 -0 -0 -0 0 0
0 0 0 0 0 0 0 0 0 0 0 0 0 0 0 0 0 0 0 0 0 0 0 0 0 0 0 0 0 0 0 0 0 0 0 0 -0 -0 -0 -0 0 0 0
0 0 0 0 0 0 0 0 0 0 0 0 0 0 0 0 0 0 0 0 0 0 0 0 0 0 0 0 0 0 0 0 0 0 0 0 -0 -0 -0 -0 -0 0 0
0 0 0 0 0 0 0 0 0 0 0 0 0 0 0 0 0 0 0 0 0 0 0 0 0 0 0 0 0 0 0 0 0 0 0 0 0 -0 -0 -0 -0 0 0
0 0 0 0 0 0 0 0 0 0 0 0 0 0 0 0 0 0 0 0 0 0 0 0 0 0 0 0 0 0 0 0 0 0 0 0 0 -0 -0 -0 -0 -0 0
0 0 0 0 0 0 0 0 0 0 0 0 0 0 0 0 0 0 0 0 0 0 0 0 0 0 0 0 0 0 0 0 0 0 0 0 0 -0 -0 -0 -0 -0 -0
0 0 0 0 0 0 0 0 0 0 0 0 0 0 0 0 0 0 0 0 0 0 0 0 0 0 0 0 0 0 0 0 0 0 0 0 0 -0 -0 -0 -0 -0 -0
0 0 0 0 0 0 0 0 0 0 0 0 0 0 0 0 0 0 0 0 0 0 0 0 0 0 0 0 0 0 0 0 0 0 0 0 0 0 0 0 0 0 0
0 0 0 0 0 0 0 0 0 0 0 0 0 0 0 0 0 0 0 0 0 0 0 0 0 0 0 0 0 0 0 0 0 0 0 0 0 0 0 0 0 0 0
0 0 0 0 0 0 0 0 0 0 0 0 0 0 0 0 0 0 0 0 0 0 0 0 0 0 0 0 0 0 0 0 0 0 0 0 0 0 0 0 0 0 0
Wind_Speed_500mb
67 59 58 56 53 47 37 27 17 13 14 16 17 18 20 26 35 43 52 55 60 64 66 62 60 59 58 62 65 69 74 74 79 89 90 71 36 70 56 59 69 69 77
77 72 69 68 61 48 39 30 22 15 15 17 18 19 22 27 33 41 47 55 61 61 59 58 56 56 56 56 60 66 72 71 69 71 56 55 65 88 66 63 70 67 75
89 83 80 76 66 58 46 35 26 20 17 17 18 19 21 26 29 36 48 53 55 57 57 55 52 50 49 53 58 61 64 68 64 62 54 39 36 84 73 71 72 66 66
85 86 86 83 74 63 51 42 33 24 20 18 17 18 19 25 33 41 48 50 53 55 55 52 49 47 46 46 50 56 57 60 63 61 58 50 51 52 47 80 73 63 60
79 86 92 82 72 65 57 46 37 29 23 19 17 18 20 24 30 37 43 46 48 51 51 50 49 44 41 42 46 49 51 53 54 54 61 64 59 52 51 56 87 63 59
60 70 76 80 77 70 62 52 42 33 26 20 15 17 18 22 27 35 42 45 47 48 47 46 45 44 41 40 41 44 46 48 50 51 56 61 63 61 59 58 64 63 59
40 58 71 83 83 79 70 59 48 38 30 21 15 16 16 20 27 36 42 45 46 48 48 48 46 45 42 39 39 41 43 46 48 50 54 54 65 60 57 53 61 59 50
36 47 63 75 84 83 74 65 53 43 33 23 17 14 14 17 24 33 40 43 45 47 47 45 44 43 42 39 37 37 39 42 43 46 54 53 58 66 58 56 57 53 40
35 40 53 69 80 86 77 68 57 47 37 27 19 14 12 13 21 29 35 37 39 42 43 43 42 42 41 41 38 35 34 39 41 43 50 54 55 60 59 58 50 36 27
34 40 47 61 74 81 77 70 59 48 37 30 22 15 12 10 17 24 30 32 34 38 39 39 38 38 41 42 40 36 32 35 41 42 48 50 54 59 62 60 56 40 29
38 41 46 56 67 79 81 75 66 55 45 34 25 18 14 8 12 19 24 26 30 34 36 37 37 39 43 47 43 37 30 31 35 39 45 48 53 60 64 65 58 48 33
33 39 45 52 66 79 86 81 71 60 48 38 29 21 18 8 8 14 19 21 26 31 34 35 35 36 42 46 47 39 29 30 32 37 41 48 52 59 63 66 60 51 34
34 41 48 56 65 78 89 86 76 64 53 44 33 26 21 11 5 9 14 17 22 28 31 32 33 37 44 48 51 39 30 25 29 32 39 45 50 59 63 64 62 53 39
34 43 52 59 64 77 90 91 83 69 59 49 38 31 25 14 5 4 9 14 20 27 29 31 32 34 39 47 48 38 31 23 24 26 33 40 44 54 59 58 59 51 44
45 51 57 62 66 77 92 94 87 76 65 54 43 36 29 19 9 1 5 11 19 26 30 31 31 31 36 44 43 39 33 25 20 20 25 32 35 40 46 48 54 50 43
58 58 61 66 71 79 92 99 93 82 70 59 48 42 34 23 13 6 2 9 19 24 29 29 31 33 37 42 46 43 35 26 23 19 19 26 32 33 43 45 47 46 44
65 72 71 74 76 79 87 100 96 86 74 63 54 47 39 28 18 11 5 8 16 22 26 30 32 34 37 43 43 41 37 28 24 21 18 23 30 34 42 43 46 47 42
67 68 68 72 75 75 80 92 95 88 78 69 59 52 44 33 24 16 9 9 14 19 24 28 33 36 38 44 45 42 35 28 22 19 19 23 27 36 39 39 44 47 44
58 55 50 56 66 73 76 86 97 93 84 75 64 56 47 36 28 20 13 11 12 16 20 26 31 33 36 43 44 42 35 28 19 18 19 21 26 33 36 37 40 45 45
25 25 26 38 53 67 72 82 100 100 91 80 67 58 50 40 32 24 18 13 12 14 19 24 30 35 36 41 43 43 36 27 21 19 18 18 24 28 34 36 38 43 44
12 13 19 28 41 56 67 80 98 104 92 80 69 63 54 44 36 29 22 16 13 14 18 22 29 33 36 41 44 41 36 30 24 23 20 21 26 29 33 35 37 38 35
19 20 25 31 40 50 62 77 97 103 93 82 73 67 60 51 42 34 26 19 13 14 16 20 24 30 34 40 43 39 35 29 24 24 25 28 29 32 32 34 34 32 29
21 25 28 32 38 49 60 74 96 105 97 88 79 72 63 54 46 38 30 23 16 13 13 13 19 26 31 37 38 34 28 25 23 23 25 26 27 28 29 33 32 30 33
31 32 33 37 39 47 58 71 89 104 98 91 83 76 68 60 52 43 34 25 18 14 10 10 14 21 26 33 35 33 25 22 21 22 19 23 26 29 29 29 36 40 41
45 41 40 39 38 46 61 73 87 103 101 92 86 80 72 64 56 44 34 29 22 14 9 7 10 16 25 32 35 35 28 20 19 24 18 14 16 21 31 37 38 40 42
46 47 45 41 42 49 62 72 85 104 104 99 93 85 78 70 60 53 48 39 28 20 14 9 8 15 22 25 30 34 36 23 17 14 14 18 20 24 30 38 42 44 49
Wind_Direction_500mb
223 219 220 220 219 220 222 229 242 271 305 320 323 328 331 346 352 353 351 348 349 350 350 347 348 349 352 354 355 358 1 8 7 3 4 5 9 14 10 11 2 7 6
223 219 218 219 220 223 222 228 238 259 290 306 313 327 337 347 351 353 346 350 352 349 346 349 350 348 349 353 358 3 3 9 16 7 1 350 355 4 9 7 8 13 2
225 219 217 219 219 218 221 226 235 250 274 296 309 323 335 339 347 348 352 351 348 347 351 351 348 346 349 353 360 3 6 6 12 22 9 352 340 337 343 5 8 12 8
230 226 219 218 217 218 218 222 229 242 262 285 303 315 324 338 349 353 351 350 349 352 351 350 350 350 348 351 358 2 6 6 10 15 16 13 1 345 332 349 4 13 15
232 226 222 221 219 217 219 222 226 234 250 274 295 312 323 340 346 352 348 351 353 353 351 352 352 351 351 351 356 360 4 9 11 15 12 11 5 0 347 335 348 15 21
232 231 228 221 216 213 215 220 225 231 241 260 284 301 318 335 343 348 349 354 356 357 356 355 355 354 353 353 355 358 1 9 13 15 17 14 3 359 356 347 344 351 13
223 223 220 216 212 211 212 216 221 227 235 247 269 289 313 330 343 348 350 356 357 359 359 359 359 358 357 355 354 354 359 6 12 16 16 20 16 10 8 357 352 353 3
216 218 219 217 213 211 213 215 217 222 229 239 254 275 303 324 343 350 351 356 358 0 359 359 358 358 358 357 354 353 358 6 12 15 19 16 17 16 19 11 2 354 357
210 211 213 215 213 211 213 215 215 218 223 230 244 260 285 319 343 350 353 355 359 2 359 359 360 360 359 359 357 355 358 6 13 16 18 15 16 15 18 22 14 4 343
215 212 212 214 212 211 212 213 214 219 221 226 236 247 262 308 339 351 354 354 2 4 1 2 3 2 0 2 5 0 360 7 15 17 16 15 16 16 18 22 14 16 1
220 216 213 213 213 209 210 211 212 213 216 220 228 235 243 281 334 351 355 354 8 7 5 5 6 6 5 4 8 6 7 9 17 17 15 15 15 17 16 20 17 17 13
225 223 218 213 210 208 208 209 210 212 213 216 220 224 229 246 320 352 353 358 13 12 10 10 9 9 9 4 9 9 12 13 16 15 14 14 14 16 17 18 15 18 21
218 217 218 216 213 209 208 209 210 210 211 213 215 217 220 223 290 348 350 5 20 19 14 14 10 11 11 11 9 10 8 12 17 15 14 15 11 16 17 15 13 18 26
229 224 221 219 215 212 209 209 209 208 210 209 210 212 214 213 232 341 351 14 27 26 20 19 14 11 8 13 4 11 9 9 16 18 14 17 14 17 18 11 8 15 25
238 232 230 224 218 214 210 210 210 208 206 206 207 208 206 205 202 222 353 27 37 30 22 21 16 8 4 18 359 8 6 10 19 24 17 19 17 19 24 13 7 15 22
247 243 238 232 225 219 213 209 209 207 205 203 204 206 200 197 190 181 36 41 45 34 28 21 17 9 6 19 0 7 7 10 18 33 27 16 15 19 31 20 20 21 20
260 252 246 240 231 224 217 212 207 205 203 201 202 203 197 192 185 178 144 66 54 42 31 26 19 12 6 9 7 10 7 8 18 32 30 27 15 18 33 21 24 26 28
262 254 249 243 234 226 219 213 208 205 202 201 201 200 195 188 183 174 152 95 68 52 37 28 22 16 9 7 8 15 8 7 17 35 36 27 21 27 23 23 26 25 26
278 267 261 247 234 226 219 212 204 203 202 201 200 198 193 187 182 172 158 123 89 63 47 34 26 18 15 13 14 20 17 18 37 42 39 28 31 30 26 22 25 26 26
275 253 239 228 225 222 218 210 203 202 202 200 198 195 190 186 181 173 163 145 108 73 53 39 29 22 18 19 21 23 23 36 46 47 36 29 36 31 27 23 19 22 21
290 240 231 227 225 221 214 208 203 202 201 198 195 193 188 186 181 177 169 158 123 85 60 43 33 25 21 24 25 27 34 48 47 52 47 43 38 35 30 25 26 21 15
266 241 230 224 223 217 211 208 203 201 199 195 193 191 188 186 183 179 175 165 142 100 67 45 35 31 28 28 27 31 40 51 53 52 50 44 35 31 26 26 26 20 19
259 238 237 233 225 217 212 209 202 200 195 193 193 191 189 186 184 182 177 174 157 117 85 57 41 37 35 35 31 34 43 50 52 50 44 41 34 29 28 27 24 24 27
248 244 237 230 226 214 211 208 205 198 195 193 192 190 189 187 185 180 179 178 163 138 116 74 49 44 40 42 39 39 44 51 55 57 48 41 34 34 37 36 34 34 33
255 244 239 232 227 216 211 207 202 197 195 195 193 191 188 189 186 182 182 179 172 158 143 109 61 50 43 40 40 41 46 53 55 53 42 50 52 48 47 46 44 44 42
256 244 233 229 224 216 214 207 200 198 198 195 194 192 190 188 186 185 183 179 182 175 173 152 90 54 49 45 39 42 44 47 58 47 58 60 57 51 49 49 48 47 44
Wind_Speed_850mb
67 59 58 56 53 47 37 27 17 13 14 16 17 18 20 26 35 43 52 55 60 64 66 62 60 59 58 62 65 69 74 74 79 89 90 71 36 70 56 59 69 69 77
77 72 69 68 61 48 39 30 22 15 15 17 18 19 22 27 33 41 47 55 61 61 59 58 56 56 56 56 60 66 72 71 69 71 56 55 65 88 66 63 70 67 75
89 83 80 76 66 58 46 35 26 20 17 17 18 19 21 26 29 36 48 53 55 57 57 55 52 50 49 53 58 61 64 68 64 62 54 39 36 84 73 71 72 66 66
85 86 86 83 74 63 51 42 33 24 20 18 17 18 19 25 33 41 48 50 53 55 55 52 49 47 46 46 50 56 57 60 63 61 58 50 51 52 47 80 73 63 60
79 86 92 82 72 65 57 46 37 29 23 19 17 18 20 24 30 37 43 46 48 51 51 50 49 44 41 42 46 49 51 53 54 54 61 64 59 52 51 56 87 63 59
60 70 76 80 77 70 62 52 42 33 26 20 15 17 18 22 27 35 42 45 47 48 47 46 45 44 41 40 41 44 46 48 50 51 56 61 63 61 59 58 64 63 59
40 58 71 83 83 79 70 59 48 38 30 21 15 16 16 20 27 36 42 45 46 48 48 48 46 45 42 39 39 41 43 46 48 50 54 54 65 60 57 53 61 59 50
36 47 63 75 84 83 74 65 53 43 33 23 17 14 14 17 24 33 40 43 45 47 47 45 44 43 42 39 37 37 39 42 43 46 54 53 58 66 58 56 57 53 40
35 40 53 69 80 86 77 68 57 47 37 27 19 14 12 13 21 29 35 37 39 42 43 43 42 42 41 41 38 35 34 39 41 43 50 54 55 60 59 58 50 36 27
34 40 47 61 74 81 77 70 59 48 37 30 22 15 12 10 17 24 30 32 34 38 39 39 38 38 41 42 40 36 32 35 41 42 48 50 54 59 62 60 56 40 29
38 41 46 56 67 79 81 75 66 55 45 34 25 18 14 8 12 19 24 26 30 34 36 37 37 39 43 47 43 37 30 31 35 39 45 48 53 60 64 65 58 48 33
33 39 45 52 66 79 86 81 71 60 48 38 29 21 18 8 8 14 19 21 26 31 34 35 35 36 42 46 47 39 29 30 32 37 41 48 52 59 63 66 60 51 34
34 41 48 56 65 78 89 86 76 64 53 44 33 26 21 11 5 9 14 17 22 28 31 32 33 37 44 48 51 39 30 25 29 32 39 45 50 59 63 64 62 53 39
34 43 52 59 64 77 90 91 83 69 59 49 38 31 25 14 5 4 9 14 20 27 29 31 32 34 39 47 48 38 31 23 24 26 33 40 44 54 59 58 59 51 44
45 51 57 62 66 77 92 94 87 76 65 54 43 36 29 19 9 1 5 11 19 26 30 31 31 31 36 44 43 39 33 25 20 20 25 32 35 40 46 48 54 50 43
58 58 61 66 71 79 92 99 93 82 70 59 48 42 34 23 13 6 2 9 19 24 29 29 31 33 37 42 46 43 35 26 23 19 19 26 32 33 43 45 47 46 44
65 72 71 74 76 79 87 100 96 86 74 63 54 47 39 28 18 11 5 8 16 22 26 30 32 34 37 43 43 41 37 28 24 21 18 23 30 34 42 43 46 47 42
67 68 68 72 75 75 80 92 95 88 78 69 59 52 44 33 24 16 9 9 14 19 24 28 33 36 38 44 45 42 35 28 22 19 19 23 27 36 39 39 44 47 44
58 55 50 56 66 73 76 86 97 93 84 75 64 56 47 36 28 20 13 11 12 16 20 26 31 33 36 43 44 42 35 28 19 18 19 21 26 33 36 37 40 45 45
25 25 26 38 53 67 72 82 100 100 91 80 67 58 50 40 32 24 18 13 12 14 19 24 30 35 36 41 43 43 36 27 21 19 18 18 24 28 34 36 38 43 44
12 13 19 28 41 56 67 80 98 104 92 80 69 63 54 44 36 29 22 16 13 14 18 22 29 33 36 41 44 41 36 30 24 23 20 21 26 29 33 35 37 38 35
19 20 25 31 40 50 62 77 97 103 93 82 73 67 60 51 42 34 26 19 13 14 16 20 24 30 34 40 43 39 35 29 24 24 25 28 29 32 32 34 34 32 29
21 25 28 32 38 49 60 74 96 105 97 88 79 72 63 54 46 38 30 23 16 13 13 13 19 26 31 37 38 34 28 25 23 23 25 26 27 28 29 33 32 30 33
31 32 33 37 39 47 58 71 89 104 98 91 83 76 68 60 52 43 34 25 18 14 10 10 14 21 26 33 35 33 25 22 21 22 19 23 26 29 29 29 36 40 41
45 41 40 39 38 46 61 73 87 103 101 92 86 80 72 64 56 44 34 29 22 14 9 7 10 16 25 32 35 35 28 20 19 24 18 14 16 21 31 37 38 40 42
46 47 45 41 42 49 62 72 85 104 104 99 93 85 78 70 60 53 48 39 28 20 14 9 8 15 22 25 30 34 36 23 17 14 14 18 20 24 30 38 42 44 49
Wind_Direction_850mb
223 219 220 220 219 220 222 229 242 271 305 320 323 328 331 346 352 353 351 348 349 350 350 347 348 349 352 354 355 358 1 8 7 3 4 5 9 14 10 11 2 7 6
223 219 218 219 220 223 222 228 238 259 290 306 313 327 337 347 351 353 346 350 352 349 346 349 350 348 349 353 358 3 3 9 16 7 1 350 355 4 9 7 8 13 2
225 219 217 219 219 218 221 226 235 250 274 296 309 323 335 339 347 348 352 351 348 347 351 351 348 346 349 353 360 3 6 6 12 22 9 352 340 337 343 5 8 12 8
230 226 219 218 217 218 218 222 229 242 262 285 303 315 324 338 349 353 351 350 349 352 351 350 350 350 348 351 358 2 6 6 10 15 16 13 1 345 332 349 4 13 15
232 226 222 221 219 217 219 222 226 234 250 274 295 312 323 340 346 352 348 351 353 353 351 352 352 351 351 351 356 360 4 9 11 15 12 11 5 0 347 335 348 15 21
232 231 228 221 216 213 215 220 225 231 241 260 284 301 318 335 343 348 349 354 356 357 356 355 355 354 353 353 355 358 1 9 13 15 17 14 3 359 356 347 344 351 13
223 223 220 216 212 211 212 216 221 227 235 247 269 289 313 330 343 348 350 356 357 359 359 359 359 358 357 355 354 354 359 6 12 16 16 20 16 10 8 357 352 353 3
216 218 219 217 213 211 213 215 217 222 229 239 254 275 303 324 343 350 351 356 358 0 359 359 358 358 358 357 354 353 358 6 12 15 19 16 17 16 19 11 2 354 357
210 211 213 215 213 211 213 215 215 218 223 230 244 260 285 319 343 350 353 355 359 2 359 359 360 360 359 359 357 355 358 6 13 16 18 15 16 15 18 22 14 4 343
215 212 212 214 212 211 212 213 214 219 221 226 236 247 262 308 339 351 354 354 2 4 1 2 3 2 0 2 5 0 360 7 15 17 16 15 16 16 18 22 14 16 1
220 216 213 213 213 209 210 211 212 213 216 220 228 235 243 281 334 351 355 354 8 7 5 5 6 6 5 4 8 6 7 9 17 17 15 15 15 17 16 20 17 17 13
225 223 218 213 210 208 208 209 210 212 213 216 220 224 229 246 320 352 353 358 13 12 10 10 9 9 9 4 9 9 12 13 16 15 14 14 14 16 17 18 15 18 21
218 217 218 216 213 209 208 209 210 210 211 213 215 217 220 223 290 348 350 5 20 19 14 14 10 11 11 11 9 10 8 12 17 15 14 15 11 16 17 15 13 18 26
229 224 221 219 215 212 209 209 209 208 210 209 210 212 214 213 232 341 351 14 27 26 20 19 14 11 8 13 4 11 9 9 16 18 14 17 14 17 18 11 8 15 25
238 232 230 224 218 214 210 210 210 208 206 206 207 208 206 205 202 222 353 27 37 30 22 21 16 8 4 18 359 8 6 10 19 24 17 19 17 19 24 13 7 15 22
247 243 238 232 225 219 213 209 209 207 205 203 204 206 200 197 190 181 36 41 45 34 28 21 17 9 6 19 0 7 7 10 18 33 27 16 15 19 31 20 20 21 20
260 252 246 240 231 224 217 212 207 205 203 201 202 203 197 192 185 178 144 66 54 42 31 26 19 12 6 9 7 10 7 8 18 32 30 27 15 18 33 21 24 26 28
262 254 249 243 234 226 219 213 208 205 202 201 201 200 195 188 183 174 152 95 68 52 37 28 22 16 9 7 8 15 8 7 17 35 36 27 21 27 23 23 26 25 26
278 267 261 247 234 226 219 212 204 203 202 201 200 198 193 187 182 172 158 123 89 63 47 34 26 18 15 13 14 20 17 18 37 42 39 28 31 30 26 22 25 26 26
275 253 239 228 225 222 218 210 203 202 202 200 198 195 190 186 181 173 163 145 108 73 53 39 29 22 18 19 21 23 23 36 46 47 36 29 36 31 27 23 19 22 21
290 240 231 227 225 221 214 208 203 202 201 198 195 193 188 186 181 177 169 158 123 85 60 43 33 25 21 24 25 27 34 48 47 52 47 43 38 35 30 25 26 21 15
266 241 230 224 223 217 211 208 203 201 199 195 193 191 188 186 183 179 175 165 142 100 67 45 35 31 28 28 27 31 40 51 53 52 50 44 35 31 26 26 26 20 19
259 238 237 233 225 217 212 209 202 200 195 193 193 191 189 186 184 182 177 174 157 117 85 57 41 37 35 35 31 34 43 50 52 50 44 41 34 29 28 27 24 24 27
248 244 237 230 226 214 211 208 205 198 195 193 192 190 189 187 185 180 179 178 163 138 116 74 49 44 40 42 39 39 44 51 55 57 48 41 34 34 37 36 34 34 33
255 244 239 232 227 216 211 207 202 197 195 195 193 191 188 189 186 182 182 179 172 158 143 109 61 50 43 40 40 41 46 53 55 53 42 50 52 48 47 46 44 44 42
256 244 233 229 224 216 214 207 200 198 198 195 194 192 190 188 186 185 183 179 182 175 173 152 90 54 49 45 39 42 44 47 58 47 58 60 57 51 49 49 48 47 44